| time (UTC) | temp F | wind direction | speed MPH | gust MPH | rain 1hr in | rain 24hr in | rain mn in | humidity % | barometer mb |
| 20260903045009 | 69 | 211 | 0.0 | 2.0 | 0.08 | 0.31 | 0.07 | 93 | 1039.3 |
| 20260903044511 | 69 | 226 | 0.0 | 2.0 | 0.07 | 0.30 | 0.06 | 93 | 1039.5 |
| 20260903044008 | 69 | 187 | 0.0 | 0.0 | 0.07 | 0.30 | 0.06 | 93 | 1039.8 |
| 20260903043510 | 70 | 188 | 0.0 | 0.0 | 0.07 | 0.28 | 0.05 | 93 | 1040.1 |
| 20260903043012 | 70 | 188 | 0.0 | 0.0 | 0.08 | 0.28 | 0.04 | 94 | 1039.9 |
| 20260903042510 | 70 | 180 | 0.0 | 0.0 | 0.09 | 0.27 | 0.03 | 94 | 1039.8 |
| 20260903042008 | 70 | 181 | 0.0 | 0.0 | 0.12 | 0.26 | 0.02 | 94 | 1040.0 |
| 20260903041502 | 70 | 180 | 0.0 | 0.0 | 0.13 | 0.26 | 0.02 | 94 | 1040.5 |
| 20260903041001 | 70 | 180 | 0.0 | 1.0 | 0.12 | 0.25 | 0.01 | 93 | 1040.5 |
| 20260903040501 | 70 | 180 | 0.0 | 1.0 | 0.12 | 0.25 | 0.01 | 93 | 1040.8 |
| 20260903040100 | 70 | 180 | 0.0 | 1.0 | 0.11 | 0.24 | 0.00 | 93 | 1040.6 |
| 20260903035559 | 70 | 180 | 0.0 | 2.0 | 0.11 | 0.24 | 0.24 | 93 | 1040.5 |
| 20260903035059 | 70 | 180 | 0.0 | 3.0 | 0.11 | 0.23 | 0.23 | 93 | 1040.2 |
| 20260903034608 | 70 | 236 | 0.0 | 3.0 | 0.11 | 0.23 | 0.23 | 93 | 1040.1 |
| 20260903034059 | 70 | 245 | 0.0 | 2.0 | 0.11 | 0.23 | 0.23 | 92 | 1040.6 |
| 20260903033559 | 70 | 237 | 0.0 | 5.0 | 0.10 | 0.22 | 0.22 | 92 | 1040.6 |
| 20260903033059 | 70 | 217 | 0.0 | 6.0 | 0.08 | 0.20 | 0.20 | 92 | 1040.8 |
| 20260903032559 | 70 | 187 | 1.0 | 6.0 | 0.07 | 0.18 | 0.18 | 92 | 1041.0 |
| 20260903032058 | 70 | 219 | 0.0 | 5.0 | 0.03 | 0.14 | 0.14 | 93 | 1041.4 |
| 20260903031618 | 70 | 215 | 1.0 | 5.0 | 0.03 | 0.13 | 0.13 | 93 | 1041.6 |
| 20260903031057 | 70 | 269 | 0.0 | 2.0 | 0.03 | 0.13 | 0.13 | 93 | 1041.2 |
| 20260903030557 | 70 | 342 | 0.0 | 1.0 | 0.03 | 0.13 | 0.13 | 93 | 1040.3 |
| 20260903030057 | 70 | 340 | 0.0 | 1.0 | 0.03 | 0.13 | 0.13 | 93 | 1039.8 |
| 20260903025557 | 71 | 339 | 0.0 | 1.0 | 0.04 | 0.13 | 0.13 | 93 | 1039.5 |
| 20260903025057 | 71 | 339 | 0.0 | 1.0 | 0.03 | 0.12 | 0.12 | 92 | 1039.8 |
| 20260903024557 | 71 | 339 | 0.0 | 0.0 | 0.03 | 0.12 | 0.12 | 92 | 1040.2 |
| 20260903024056 | 71 | 340 | 0.0 | 0.0 | 0.03 | 0.12 | 0.12 | 92 | 1040.1 |
| 20260903023556 | 71 | 340 | 0.0 | 2.0 | 0.03 | 0.12 | 0.12 | 92 | 1040.4 |
| 20260903023058 | 71 | 339 | 0.0 | 2.0 | 0.03 | 0.12 | 0.12 | 92 | 1040.1 |
| 20260903022556 | 71 | 340 | 0.0 | 2.0 | 0.02 | 0.11 | 0.11 | 92 | 1040.4 |
| 20260903022057 | 71 | 311 | 0.0 | 2.0 | 0.02 | 0.11 | 0.11 | 91 | 1040.3 |
| 20260903021556 | 71 | 204 | 0.0 | 0.0 | 0.01 | 0.10 | 0.10 | 91 | 1039.7 |
| 20260903021056 | 72 | 204 | 0.0 | 0.0 | 0.01 | 0.10 | 0.10 | 90 | 1039.8 |
| 20260903020556 | 72 | 204 | 0.0 | 0.0 | 0.01 | 0.10 | 0.10 | 90 | 1040.1 |
| 20260903020101 | 72 | 204 | 0.0 | 0.0 | 0.01 | 0.10 | 0.10 | 90 | 1040.2 |
| 20260903015555 | 72 | 204 | 0.0 | 1.0 | 0.00 | 0.09 | 0.09 | 89 | 1040.3 |
| 20260903015054 | 72 | 204 | 0.0 | 1.0 | 0.00 | 0.09 | 0.09 | 89 | 1040.5 |
| 20260903014602 | 72 | 204 | 0.0 | 0.0 | 0.00 | 0.09 | 0.09 | 89 | 1040.4 |
| 20260903014054 | 72 | 204 | 0.0 | 0.0 | 0.00 | 0.09 | 0.09 | 89 | 1040.4 |
| 20260903013553 | 73 | 204 | 0.0 | 2.0 | 0.00 | 0.09 | 0.09 | 88 | 1040.6 |
| 20260903013055 | 72 | 204 | 0.0 | 2.0 | 0.00 | 0.09 | 0.09 | 88 | 1040.1 |
| 20260903012556 | 72 | 210 | 0.0 | 1.0 | 0.00 | 0.09 | 0.09 | 88 | 1039.8 |
| 20260903012054 | 72 | 210 | 0.0 | 1.0 | 0.00 | 0.09 | 0.09 | 88 | 1039.9 |
| 20260903011557 | 72 | 210 | 0.0 | 1.0 | 0.00 | 0.09 | 0.09 | 88 | 1039.4 |
| 20260903011053 | 72 | 209 | 0.0 | 1.0 | 0.00 | 0.09 | 0.09 | 88 | 1039.4 |
| 20260903010554 | 72 | 212 | 0.0 | 0.0 | 0.00 | 0.09 | 0.09 | 88 | 1039.4 |
| 20260903010052 | 72 | 212 | 0.0 | 1.0 | 0.00 | 0.09 | 0.09 | 88 | 1039.4 |
| 20260903005553 | 72 | 212 | 0.0 | 1.0 | 0.00 | 0.11 | 0.09 | 88 | 1039.4 |
| 20260903005053 | 72 | 212 | 0.0 | 1.0 | 0.00 | 0.11 | 0.09 | 88 | 1039.2 |
| 20260903004552 | 72 | 212 | 0.0 | 3.0 | 0.00 | 0.11 | 0.09 | 88 | 1039.2 |
| 20260903004054 | 72 | 212 | 0.0 | 3.0 | 0.00 | 0.11 | 0.09 | 88 | 1039.2 |
| 20260903003552 | 72 | 193 | 0.0 | 2.0 | 0.00 | 0.11 | 0.09 | 89 | 1039.2 |
| 20260903003052 | 72 | 210 | 0.0 | 1.0 | 0.00 | 0.11 | 0.09 | 89 | 1039.0 |
| 20260903002552 | 72 | 210 | 0.0 | 2.0 | 0.00 | 0.11 | 0.09 | 89 | 1039.1 |
| 20260903002051 | 72 | 210 | 0.0 | 2.0 | 0.00 | 0.11 | 0.09 | 89 | 1039.2 |
| 20260903001552 | 72 | 221 | 0.0 | 1.0 | 0.00 | 0.11 | 0.09 | 89 | 1039.3 |
| 20260903001051 | 72 | 221 | 0.0 | 1.0 | 0.00 | 0.11 | 0.09 | 90 | 1039.4 |
| 20260903000551 | 72 | 221 | 0.0 | 1.0 | 0.00 | 0.11 | 0.09 | 90 | 1039.6 |
| 20260903000053 | 72 | 221 | 0.0 | 0.0 | 0.00 | 0.11 | 0.09 | 89 | 1039.7 |
| 20260902235551 | 72 | 221 | 0.0 | 0.0 | 0.00 | 0.13 | 0.09 | 89 | 1039.6 |
| 20260902235050 | 72 | 221 | 0.0 | 1.0 | 0.00 | 0.13 | 0.09 | 89 | 1039.5 |
| 20260902234550 | 72 | 221 | 0.0 | 1.0 | 0.00 | 0.13 | 0.09 | 88 | 1039.4 |
| 20260902234054 | 73 | 221 | 0.0 | 1.0 | 0.00 | 0.13 | 0.09 | 88 | 1039.1 |
| 20260902233550 | 73 | 221 | 0.0 | 5.0 | 0.00 | 0.13 | 0.09 | 87 | 1038.8 |
| 20260902233050 | 73 | 221 | 0.0 | 5.0 | 0.00 | 0.13 | 0.09 | 87 | 1038.9 |
| 20260902232550 | 73 | 216 | 0.0 | 4.0 | 0.00 | 0.13 | 0.09 | 87 | 1039.0 |
| 20260902232050 | 73 | 215 | 1.0 | 4.0 | 0.00 | 0.13 | 0.09 | 87 | 1038.6 |
| 20260902231550 | 73 | 179 | 0.0 | 2.0 | 0.00 | 0.13 | 0.09 | 86 | 1038.5 |
| 20260902231050 | 74 | 194 | 0.0 | 2.0 | 0.00 | 0.13 | 0.09 | 86 | 1038.4 |
| 20260902230548 | 74 | 195 | 0.0 | 3.0 | 0.00 | 0.13 | 0.09 | 86 | 1038.7 |
| 20260902230048 | 74 | 175 | 0.0 | 3.0 | 0.00 | 0.13 | 0.09 | 86 | 1038.8 |
| 20260902225547 | 75 | 216 | 1.0 | 3.0 | 0.00 | 0.54 | 0.09 | 86 | 1038.8 |
| 20260902225048 | 75 | 34 | 0.0 | 4.0 | 0.00 | 0.54 | 0.09 | 86 | 1038.8 |
| 20260902224547 | 75 | 184 | 0.0 | 4.0 | 0.00 | 0.54 | 0.09 | 85 | 1038.9 |
| 20260902224047 | 75 | 219 | 0.0 | 5.0 | 0.00 | 0.54 | 0.09 | 86 | 1038.7 |
| 20260902223546 | 76 | 211 | 1.0 | 5.0 | 0.00 | 0.54 | 0.09 | 85 | 1038.9 |
| 20260902223046 | 76 | 214 | 1.0 | 4.0 | 0.00 | 0.54 | 0.09 | 85 | 1039.0 |
| 20260902222549 | 76 | 181 | 0.0 | 5.0 | 0.00 | 0.54 | 0.09 | 85 | 1038.9 |
| 20260902222046 | 76 | 223 | 1.0 | 5.0 | 0.00 | 0.54 | 0.09 | 85 | 1038.8 |
| 20260902221545 | 76 | 214 | 0.0 | 3.0 | 0.00 | 0.54 | 0.09 | 85 | 1039.0 |
| 20260902221046 | 76 | 184 | 0.0 | 1.0 | 0.00 | 0.54 | 0.09 | 85 | 1039.0 |
| 20260902220544 | 77 | 68 | 0.0 | 1.0 | 0.00 | 0.54 | 0.09 | 85 | 1039.1 |
| 20260902220047 | 77 | 68 | 0.0 | 1.0 | 0.00 | 0.54 | 0.09 | 85 | 1039.4 |
| 20260902215544 | 77 | 68 | 0.0 | 1.0 | 0.00 | 0.63 | 0.09 | 85 | 1039.4 |
| 20260902215044 | 77 | 68 | 0.0 | 1.0 | 0.00 | 0.63 | 0.09 | 84 | 1039.4 |
| 20260902214544 | 77 | 74 | 0.0 | 3.0 | 0.00 | 0.63 | 0.09 | 84 | 1039.3 |
| 20260902214044 | 77 | 75 | 0.0 | 3.0 | 0.00 | 0.63 | 0.09 | 83 | 1039.3 |
| 20260902213547 | 78 | 212 | 0.0 | 3.0 | 0.00 | 0.63 | 0.09 | 83 | 1039.3 |
| 20260902213043 | 78 | 94 | 0.0 | 2.0 | 0.00 | 0.63 | 0.09 | 84 | 1039.3 |
| 20260902212543 | 78 | 192 | 0.0 | 1.0 | 0.00 | 0.63 | 0.09 | 83 | 1039.3 |
| 20260902212044 | 78 | 191 | 0.0 | 4.0 | 0.00 | 0.63 | 0.09 | 83 | 1039.4 |
| 20260902211551 | 78 | 192 | 0.0 | 4.0 | 0.00 | 0.63 | 0.09 | 82 | 1039.5 |
| 20260902211042 | 78 | 231 | 0.0 | 3.0 | 0.00 | 0.63 | 0.09 | 85 | 1039.5 |
| 20260902210541 | 77 | 70 | 0.0 | 2.0 | 0.00 | 0.63 | 0.09 | 85 | 1039.5 |
| 20260902210108 | 77 | 67 | 0.0 | 2.0 | 0.00 | 0.63 | 0.09 | 86 | 1039.4 |
| 20260902205542 | 77 | 65 | 0.0 | 3.0 | 0.00 | 0.63 | 0.09 | 85 | 1039.5 |
| 20260902205042 | 77 | 30 | 1.0 | 3.0 | 0.00 | 0.63 | 0.09 | 85 | 1039.5 |
| 20260902204543 | 77 | 88 | 0.0 | 3.0 | 0.00 | 0.63 | 0.09 | 85 | 1039.4 |
| 20260902204042 | 77 | 206 | 0.0 | 2.0 | 0.00 | 0.63 | 0.09 | 85 | 1039.4 |
| 20260902203541 | 77 | 204 | 0.0 | 2.0 | 0.00 | 0.63 | 0.09 | 85 | 1039.2 |
| 20260902203040 | 77 | 205 | 0.0 | 2.0 | 0.01 | 0.63 | 0.09 | 84 | 1039.1 |
| 20260902202540 | 77 | 188 | 0.0 | 1.0 | 0.01 | 0.63 | 0.09 | 86 | 1039.3 |
| 20260902202040 | 77 | 182 | 0.0 | 2.0 | 0.02 | 0.63 | 0.09 | 86 | 1039.3 |
| 20260902201539 | 77 | 173 | 0.0 | 2.0 | 0.02 | 0.63 | 0.09 | 86 | 1039.4 |
| 20260902201040 | 77 | 230 | 0.0 | 2.0 | 0.02 | 0.63 | 0.09 | 85 | 1039.5 |
| 20260902200541 | 77 | 187 | 0.0 | 1.0 | 0.02 | 0.63 | 0.09 | 86 | 1039.6 |
| 20260902200037 | 76 | 184 | 0.0 | 2.0 | 0.02 | 0.63 | 0.09 | 88 | 1039.6 |
| 20260902195536 | 76 | 184 | 0.0 | 2.0 | 0.02 | 0.63 | 0.09 | 88 | 1039.7 |
| 20260902195036 | 75 | 188 | 0.0 | 0.0 | 0.02 | 0.63 | 0.09 | 89 | 1039.8 |
| 20260902194536 | 75 | 188 | 0.0 | 0.0 | 0.02 | 0.63 | 0.09 | 88 | 1040.0 |
| 20260902194035 | 75 | 189 | 0.0 | 1.0 | 0.02 | 0.63 | 0.09 | 89 | 1040.0 |
| 20260902193536 | 75 | 190 | 0.0 | 1.0 | 0.02 | 0.63 | 0.09 | 88 | 1039.9 |
| 20260902193036 | 75 | 188 | 0.0 | 1.0 | 0.01 | 0.62 | 0.08 | 88 | 1040.0 |
| 20260902192537 | 75 | 212 | 0.0 | 1.0 | 0.01 | 0.62 | 0.08 | 88 | 1040.0 |
| 20260902192035 | 75 | 212 | 0.0 | 1.0 | 0.00 | 0.61 | 0.07 | 88 | 1039.7 |
| 20260902191542 | 75 | 253 | 0.0 | 2.0 | 0.00 | 0.61 | 0.07 | 88 | 1039.9 |
| 20260902191035 | 75 | 255 | 0.0 | 2.0 | 0.00 | 0.61 | 0.07 | 87 | 1040.0 |
| 20260902190535 | 75 | 255 | 0.0 | 4.0 | 0.00 | 0.61 | 0.07 | 87 | 1040.2 |
| 20260902190040 | 75 | 88 | 0.0 | 4.0 | 0.00 | 0.61 | 0.07 | 86 | 1040.4 |
| 20260902185535 | 76 | 56 | 0.0 | 3.0 | 0.00 | 0.61 | 0.07 | 86 | 1040.4 |
| 20260902185034 | 76 | 44 | 0.0 | 3.0 | 0.00 | 0.61 | 0.07 | 86 | 1040.5 |
| 20260902184534 | 76 | 44 | 0.0 | 3.0 | 0.00 | 0.61 | 0.07 | 86 | 1040.5 |
| 20260902184039 | 76 | 44 | 1.0 | 4.0 | 0.00 | 0.61 | 0.07 | 86 | 1040.6 |
| 20260902183535 | 76 | 67 | 1.0 | 4.0 | 0.00 | 0.61 | 0.07 | 86 | 1040.7 |
| 20260902183034 | 76 | 32 | 1.0 | 4.0 | 0.00 | 0.61 | 0.07 | 85 | 1040.4 |
| 20260902182532 | 76 | 347 | 1.0 | 4.0 | 0.00 | 0.61 | 0.07 | 87 | 1040.0 |
| 20260902182032 | 75 | 172 | 0.0 | 4.0 | 0.00 | 0.61 | 0.07 | 87 | 1039.7 |
| 20260902181530 | 75 | 207 | 0.0 | 4.0 | 0.00 | 0.61 | 0.07 | 88 | 1039.8 |
| 20260902181033 | 74 | 211 | 0.0 | 4.0 | 0.00 | 0.61 | 0.07 | 89 | 1039.8 |
| 20260902180528 | 74 | 218 | 1.0 | 6.0 | 0.00 | 0.61 | 0.07 | 89 | 1039.9 |
| 20260902180028 | 74 | 211 | 1.0 | 6.0 | 0.00 | 0.61 | 0.07 | 88 | 1040.2 |
| 20260902175534 | 74 | 204 | 0.0 | 5.0 | 0.00 | 0.61 | 0.07 | 89 | 1040.4 |
| 20260902175031 | 74 | 235 | 1.0 | 5.0 | 0.00 | 0.61 | 0.07 | 89 | 1040.5 |
| 20260902174529 | 74 | 208 | 0.0 | 2.0 | 0.00 | 0.61 | 0.07 | 90 | 1040.7 |
| 20260902174031 | 74 | 192 | 0.0 | 2.0 | 0.00 | 0.61 | 0.07 | 89 | 1040.8 |
| 20260902173528 | 74 | 209 | 0.0 | 2.0 | 0.00 | 0.61 | 0.07 | 90 | 1040.9 |
| 20260902173026 | 73 | 211 | 0.0 | 2.0 | 0.00 | 0.61 | 0.07 | 91 | 1041.0 |
| 20260902172526 | 73 | 211 | 0.0 | 2.0 | 0.00 | 0.61 | 0.07 | 90 | 1040.9 |
| 20260902172026 | 73 | 224 | 0.0 | 1.0 | 0.00 | 0.61 | 0.07 | 91 | 1040.9 |
| 20260902171526 | 73 | 224 | 0.0 | 2.0 | 0.01 | 0.61 | 0.07 | 91 | 1041.0 |
| 20260902171025 | 73 | 225 | 0.0 | 2.0 | 0.02 | 0.61 | 0.07 | 91 | 1040.9 |
| 20260902170528 | 73 | 215 | 0.0 | 2.0 | 0.02 | 0.61 | 0.07 | 93 | 1040.9 |
| 20260902170025 | 72 | 215 | 0.0 | 2.0 | 0.03 | 0.61 | 0.07 | 92 | 1040.8 |
| 20260902165525 | 72 | 215 | 0.0 | 2.0 | 0.03 | 0.61 | 0.07 | 92 | 1040.8 |
| 20260902165028 | 72 | 167 | 0.0 | 4.0 | 0.03 | 0.61 | 0.07 | 93 | 1040.9 |
| 20260902164525 | 72 | 229 | 1.0 | 4.0 | 0.03 | 0.61 | 0.07 | 93 | 1041.2 |
| 20260902164025 | 72 | 212 | 0.0 | 1.0 | 0.03 | 0.61 | 0.07 | 93 | 1041.1 |
| 20260902163524 | 72 | 215 | 0.0 | 0.0 | 0.04 | 0.61 | 0.07 | 93 | 1041.3 |
| 20260902163027 | 72 | 215 | 0.0 | 3.0 | 0.05 | 0.61 | 0.07 | 93 | 1041.4 |
| 20260902162524 | 72 | 223 | 0.0 | 3.0 | 0.06 | 0.61 | 0.07 | 92 | 1041.6 |
| 20260902162026 | 72 | 338 | 0.0 | 3.0 | 0.06 | 0.61 | 0.07 | 93 | 1041.5 |
| 20260902161524 | 72 | 23 | 0.0 | 1.0 | 0.06 | 0.60 | 0.06 | 93 | 1041.4 |
| 20260902161024 | 72 | 23 | 0.0 | 1.0 | 0.05 | 0.59 | 0.05 | 92 | 1041.3 |
| 20260902160523 | 72 | 23 | 0.0 | 0.0 | 0.05 | 0.59 | 0.05 | 92 | 1041.1 |
| 20260902160023 | 72 | 23 | 0.0 | 0.0 | 0.04 | 0.57 | 0.04 | 92 | 1041.2 |
| 20260902155523 | 72 | 23 | 0.0 | 0.0 | 0.04 | 0.57 | 0.04 | 92 | 1041.3 |
| 20260902155024 | 72 | 23 | 0.0 | 1.0 | 0.04 | 0.57 | 0.04 | 92 | 1041.4 |
| 20260902154524 | 72 | 23 | 0.0 | 3.0 | 0.04 | 0.57 | 0.04 | 91 | 1041.2 |
| 20260902154022 | 73 | 23 | 0.0 | 3.0 | 0.03 | 0.56 | 0.03 | 91 | 1041.1 |
| 20260902153524 | 73 | 213 | 0.0 | 1.0 | 0.03 | 0.56 | 0.03 | 91 | 1040.8 |
| 20260902153034 | 73 | 214 | 0.0 | 3.0 | 0.02 | 0.56 | 0.02 | 90 | 1040.7 |
| 20260902152522 | 73 | 213 | 0.0 | 3.0 | 0.01 | 0.55 | 0.01 | 89 | 1040.9 |
| 20260902152023 | 74 | 56 | 0.0 | 2.0 | 0.01 | 0.55 | 0.01 | 89 | 1041.2 |
| 20260902151522 | 74 | 55 | 0.0 | 2.0 | 0.00 | 0.54 | 0.00 | 89 | 1041.3 |
| 20260902151026 | 74 | 55 | 0.0 | 2.0 | 0.00 | 0.54 | 0.00 | 89 | 1041.5 |
| 20260902150521 | 74 | 243 | 0.0 | 4.0 | 0.00 | 0.54 | 0.00 | 88 | 1041.3 |
| 20260902150020 | 74 | 223 | 0.0 | 4.0 | 0.00 | 0.54 | 0.00 | 88 | 1041.1 |
| 20260902145521 | 74 | 206 | 0.0 | 2.0 | 0.00 | 0.54 | 0.00 | 89 | 1041.0 |
| 20260902145019 | 74 | 195 | 0.0 | 1.0 | 0.00 | 0.54 | 0.00 | 88 | 1041.2 |
| 20260902144528 | 74 | 196 | 0.0 | 0.0 | 0.00 | 0.54 | 0.00 | 89 | 1041.2 |
| 20260902144016 | 74 | 195 | 0.0 | 1.0 | 0.00 | 0.54 | 0.00 | 89 | 1041.2 |
| 20260902143515 | 74 | 195 | 0.0 | 1.0 | 0.00 | 0.54 | 0.00 | 89 | 1041.3 |
| 20260902143014 | 74 | 195 | 0.0 | 1.0 | 0.00 | 0.54 | 0.00 | 89 | 1041.1 |
| 20260902142513 | 74 | 195 | 0.0 | 1.0 | 0.00 | 0.54 | 0.00 | 89 | 1041.2 |
| 20260902142013 | 74 | 195 | 0.0 | 1.0 | 0.00 | 0.54 | 0.00 | 89 | 1041.1 |
| 20260902141511 | 74 | 193 | 0.0 | 0.0 | 0.00 | 0.54 | 0.00 | 89 | 1041.1 |
| 20260902141010 | 74 | 193 | 0.0 | 0.0 | 0.00 | 0.54 | 0.00 | 89 | 1041.0 |
| 20260902140510 | 74 | 193 | 0.0 | 0.0 | 0.00 | 0.54 | 0.00 | 90 | 1041.1 |
| 20260902140007 | 74 | 193 | 0.0 | 0.0 | 0.00 | 0.54 | 0.00 | 90 | 1040.9 |
| 20260902135506 | 73 | 193 | 0.0 | 0.0 | 0.00 | 0.54 | 0.00 | 91 | 1041.1 |
| 20260902135004 | 73 | 193 | 0.0 | 1.0 | 0.00 | 0.54 | 0.00 | 91 | 1041.1 |
| 20260902134503 | 73 | 193 | 0.0 | 1.0 | 0.00 | 0.54 | 0.00 | 90 | 1041.2 |
| 20260902134001 | 73 | 193 | 0.0 | 1.0 | 0.00 | 0.54 | 0.00 | 92 | 1041.0 |
| 20260902133502 | 73 | 193 | 0.0 | 1.0 | 0.00 | 0.54 | 0.00 | 92 | 1040.9 |
| 20260902133100 | 73 | 193 | 0.0 | 1.0 | 0.00 | 0.54 | 0.00 | 91 | 1040.9 |
| 20260902132559 | 73 | 191 | 0.0 | 1.0 | 0.00 | 0.54 | 0.00 | 93 | 1041.1 |
| 20260902132057 | 72 | 191 | 0.0 | 1.0 | 0.00 | 0.54 | 0.00 | 93 | 1041.1 |
| 20260902131557 | 72 | 191 | 0.0 | 1.0 | 0.00 | 0.54 | 0.00 | 94 | 1041.0 |
| 20260902131055 | 72 | 191 | 0.0 | 1.0 | 0.00 | 0.54 | 0.00 | 95 | 1040.9 |
| 20260902130553 | 72 | 191 | 0.0 | 1.0 | 0.00 | 0.54 | 0.00 | 95 | 1040.8 |
| 20260902130057 | 71 | 191 | 0.0 | 1.0 | 0.00 | 0.54 | 0.00 | 95 | 1040.8 |
| 20260902125551 | 71 | 191 | 0.0 | 0.0 | 0.00 | 0.55 | 0.00 | 95 | 1041.0 |
| 20260902125050 | 71 | 191 | 0.0 | 0.0 | 0.00 | 0.55 | 0.00 | 95 | 1040.9 |
| 20260902124549 | 71 | 191 | 0.0 | 0.0 | 0.00 | 0.55 | 0.00 | 95 | 1040.9 |
| 20260902124047 | 71 | 188 | 0.0 | 0.0 | 0.00 | 0.55 | 0.00 | 96 | 1040.6 |
| 20260902123547 | 70 | 188 | 0.0 | 0.0 | 0.00 | 0.55 | 0.00 | 96 | 1040.5 |
| 20260902123051 | 70 | 188 | 0.0 | 0.0 | 0.00 | 0.55 | 0.00 | 96 | 1040.5 |
| 20260902122546 | 70 | 188 | 0.0 | 0.0 | 0.00 | 0.55 | 0.00 | 96 | 1040.4 |
| 20260902122044 | 70 | 187 | 0.0 | 0.0 | 0.00 | 0.55 | 0.00 | 96 | 1040.3 |
| 20260902121544 | 69 | 187 | 0.0 | 0.0 | 0.00 | 0.55 | 0.00 | 96 | 1040.1 |
| 20260902121043 | 69 | 187 | 0.0 | 0.0 | 0.00 | 0.55 | 0.00 | 95 | 1040.3 |
| 20260902120543 | 69 | 187 | 0.0 | 0.0 | 0.00 | 0.55 | 0.00 | 96 | 1040.3 |
| 20260902120047 | 69 | 187 | 0.0 | 0.0 | 0.00 | 0.55 | 0.00 | 95 | 1040.5 |
| 20260902115543 | 69 | 187 | 0.0 | 0.0 | 0.00 | 0.55 | 0.00 | 95 | 1040.4 |
| 20260902115043 | 68 | 187 | 0.0 | 0.0 | 0.00 | 0.55 | 0.00 | 95 | 1040.4 |
| 20260902114548 | 68 | 187 | 0.0 | 0.0 | 0.00 | 0.55 | 0.00 | 95 | 1040.4 |
| 20260902114041 | 68 | 187 | 0.0 | 0.0 | 0.00 | 0.55 | 0.00 | 95 | 1040.4 |
| 20260902113542 | 68 | 186 | 0.0 | 0.0 | 0.00 | 0.55 | 0.00 | 95 | 1040.4 |
| 20260902113050 | 68 | 186 | 0.0 | 0.0 | 0.00 | 0.55 | 0.00 | 95 | 1040.5 |
| 20260902112541 | 68 | 186 | 0.0 | 0.0 | 0.00 | 0.55 | 0.00 | 95 | 1040.5 |
| 20260902112041 | 68 | 186 | 0.0 | 0.0 | 0.00 | 0.55 | 0.00 | 95 | 1040.4 |
| 20260902111545 | 68 | 186 | 0.0 | 0.0 | 0.00 | 0.55 | 0.00 | 95 | 1040.2 |
| 20260902111041 | 68 | 186 | 0.0 | 0.0 | 0.00 | 0.55 | 0.00 | 95 | 1040.2 |
| 20260902110541 | 68 | 217 | 0.0 | 0.0 | 0.00 | 0.55 | 0.00 | 95 | 1040.2 |
| 20260902110040 | 68 | 215 | 0.0 | 0.0 | 0.00 | 0.55 | 0.00 | 95 | 1040.2 |
| 20260902105541 | 68 | 215 | 0.0 | 1.0 | 0.00 | 0.55 | 0.00 | 95 | 1040.2 |
| 20260902105040 | 68 | 215 | 0.0 | 1.0 | 0.00 | 0.55 | 0.00 | 95 | 1040.1 |
| 20260902104542 | 68 | 215 | 0.0 | 1.0 | 0.00 | 0.55 | 0.00 | 95 | 1040.3 |
| 20260902104040 | 68 | 217 | 0.0 | 1.0 | 0.00 | 0.55 | 0.00 | 95 | 1040.2 |
| 20260902103539 | 67 | 216 | 0.0 | 1.0 | 0.00 | 0.55 | 0.00 | 95 | 1040.4 |
| 20260902103039 | 67 | 218 | 0.0 | 1.0 | 0.00 | 0.55 | 0.00 | 95 | 1040.4 |
| 20260902102540 | 67 | 217 | 0.0 | 1.0 | 0.00 | 0.55 | 0.00 | 95 | 1040.4 |
| 20260902102039 | 67 | 217 | 0.0 | 1.0 | 0.00 | 0.55 | 0.00 | 95 | 1040.4 |
| 20260902101539 | 67 | 218 | 0.0 | 1.0 | 0.00 | 0.55 | 0.00 | 95 | 1040.4 |
| 20260902101039 | 67 | 218 | 0.0 | 0.0 | 0.00 | 0.55 | 0.00 | 95 | 1040.4 |
| 20260902100538 | 67 | 218 | 0.0 | 0.0 | 0.00 | 0.55 | 0.00 | 95 | 1040.4 |
| 20260902100038 | 67 | 218 | 0.0 | 0.0 | 0.00 | 0.55 | 0.00 | 95 | 1040.3 |
| 20260902095538 | 67 | 218 | 0.0 | 0.0 | 0.00 | 0.55 | 0.00 | 95 | 1040.3 |
| 20260902095037 | 67 | 218 | 0.0 | 0.0 | 0.00 | 0.55 | 0.00 | 95 | 1040.3 |
| 20260902094537 | 67 | 218 | 0.0 | 0.0 | 0.00 | 0.55 | 0.00 | 95 | 1040.2 |
| 20260902094037 | 67 | 218 | 0.0 | 1.0 | 0.00 | 0.55 | 0.00 | 95 | 1040.0 |
| 20260902093539 | 68 | 218 | 0.0 | 1.0 | 0.00 | 0.55 | 0.00 | 95 | 1040.1 |
| 20260902093038 | 68 | 218 | 0.0 | 0.0 | 0.00 | 0.55 | 0.00 | 95 | 1040.1 |
| 20260902092536 | 68 | 218 | 0.0 | 0.0 | 0.00 | 0.55 | 0.00 | 95 | 1040.2 |
| 20260902092040 | 68 | 218 | 0.0 | 0.0 | 0.00 | 0.55 | 0.00 | 95 | 1040.0 |
| 20260902091546 | 68 | 218 | 0.0 | 0.0 | 0.00 | 0.55 | 0.00 | 95 | 1040.1 |
| 20260902091036 | 68 | 218 | 0.0 | 0.0 | 0.00 | 0.55 | 0.00 | 95 | 1040.2 |
| 20260902090536 | 68 | 218 | 0.0 | 0.0 | 0.00 | 0.55 | 0.00 | 95 | 1040.2 |
| 20260902090035 | 68 | 218 | 0.0 | 0.0 | 0.00 | 0.55 | 0.00 | 95 | 1040.3 |
| 20260902085535 | 68 | 218 | 0.0 | 0.0 | 0.00 | 0.55 | 0.00 | 95 | 1040.2 |
| 20260902085036 | 68 | 218 | 0.0 | 0.0 | 0.00 | 0.55 | 0.00 | 95 | 1040.0 |
| 20260902084535 | 68 | 218 | 0.0 | 0.0 | 0.00 | 0.55 | 0.00 | 95 | 1039.9 |
| 20260902084034 | 68 | 218 | 0.0 | 0.0 | 0.00 | 0.55 | 0.00 | 95 | 1040.0 |
| 20260902083533 | 67 | 218 | 0.0 | 0.0 | 0.00 | 0.55 | 0.00 | 95 | 1039.9 |
| 20260902083033 | 67 | 218 | 0.0 | 0.0 | 0.00 | 0.55 | 0.00 | 95 | 1039.9 |
| 20260902082533 | 68 | 218 | 0.0 | 0.0 | 0.00 | 0.55 | 0.00 | 95 | 1039.9 |
| 20260902082036 | 68 | 218 | 0.0 | 0.0 | 0.00 | 0.55 | 0.00 | 95 | 1039.9 |
| 20260902081533 | 68 | 218 | 0.0 | 1.0 | 0.00 | 0.55 | 0.00 | 95 | 1039.9 |
| 20260902081032 | 68 | 218 | 0.0 | 1.0 | 0.00 | 0.55 | 0.00 | 95 | 1039.8 |
| 20260902080533 | 68 | 218 | 0.0 | 1.0 | 0.00 | 0.55 | 0.00 | 95 | 1039.7 |
| 20260902080032 | 68 | 218 | 0.0 | 1.0 | 0.00 | 0.55 | 0.00 | 95 | 1039.6 |
| 20260902075535 | 68 | 218 | 0.0 | 0.0 | 0.00 | 0.55 | 0.00 | 95 | 1039.5 |
| 20260902075031 | 68 | 218 | 0.0 | 0.0 | 0.00 | 0.55 | 0.00 | 95 | 1039.7 |
| 20260902074534 | 68 | 218 | 0.0 | 0.0 | 0.00 | 0.55 | 0.00 | 95 | 1039.5 |
| 20260902074133 | 68 | 218 | 0.0 | 0.0 | 0.00 | 0.55 | 0.00 | 95 | 1039.5 |
| 20260902073530 | 67 | 218 | 0.0 | 0.0 | 0.00 | 0.55 | 0.00 | 95 | 1039.5 |
| 20260902073033 | 67 | 218 | 0.0 | 0.0 | 0.00 | 0.55 | 0.00 | 94 | 1039.5 |
| 20260902072529 | 67 | 218 | 0.0 | 0.0 | 0.00 | 0.55 | 0.00 | 94 | 1039.6 |
| 20260902072033 | 68 | 218 | 0.0 | 0.0 | 0.00 | 0.55 | 0.00 | 95 | 1039.5 |
| 20260902071529 | 68 | 218 | 0.0 | 0.0 | 0.00 | 0.55 | 0.00 | 95 | 1039.6 |
| 20260902071028 | 68 | 218 | 0.0 | 0.0 | 0.00 | 0.55 | 0.00 | 95 | 1039.5 |
| 20260902070527 | 68 | 218 | 0.0 | 0.0 | 0.00 | 0.55 | 0.00 | 95 | 1039.5 |
| 20260902070027 | 68 | 218 | 0.0 | 0.0 | 0.00 | 0.55 | 0.00 | 94 | 1039.5 |
| 20260902065527 | 68 | 218 | 0.0 | 0.0 | 0.00 | 0.55 | 0.00 | 94 | 1039.7 |
| 20260902065026 | 68 | 218 | 0.0 | 1.0 | 0.00 | 0.55 | 0.00 | 95 | 1039.7 |
| 20260902064527 | 69 | 218 | 0.0 | 1.0 | 0.00 | 0.55 | 0.00 | 95 | 1039.7 |
| 20260902064025 | 69 | 218 | 0.0 | 1.0 | 0.00 | 0.55 | 0.00 | 95 | 1039.7 |
| 20260902063525 | 69 | 217 | 0.0 | 0.0 | 0.00 | 0.55 | 0.00 | 95 | 1039.7 |
| 20260902063026 | 69 | 240 | 0.0 | 0.0 | 0.00 | 0.55 | 0.00 | 95 | 1039.7 |
| 20260902062528 | 69 | 241 | 0.0 | 0.0 | 0.00 | 0.55 | 0.00 | 95 | 1039.9 |
| 20260902062024 | 69 | 241 | 0.0 | 0.0 | 0.00 | 0.55 | 0.00 | 95 | 1039.8 |
| 20260902061541 | 69 | 241 | 0.0 | 0.0 | 0.00 | 0.55 | 0.00 | 95 | 1039.8 |
| 20260902061028 | 69 | 241 | 0.0 | 0.0 | 0.00 | 0.55 | 0.00 | 95 | 1039.8 |
| 20260902060525 | 69 | 242 | 0.0 | 0.0 | 0.00 | 0.55 | 0.00 | 95 | 1039.8 |
| 20260902060024 | 69 | 242 | 0.0 | 0.0 | 0.00 | 0.55 | 0.00 | 95 | 1039.8 |
| 20260902055524 | 68 | 242 | 0.0 | 0.0 | 0.00 | 0.55 | 0.00 | 95 | 1039.8 |
| 20260902055024 | 68 | 242 | 0.0 | 0.0 | 0.00 | 0.55 | 0.00 | 95 | 1039.8 |
| 20260902054523 | 68 | 242 | 0.0 | 0.0 | 0.00 | 0.55 | 0.00 | 95 | 1039.7 |
| 20260902054022 | 68 | 242 | 0.0 | 0.0 | 0.00 | 0.55 | 0.00 | 95 | 1039.7 |
| 20260902053525 | 68 | 242 | 0.0 | 0.0 | 0.00 | 0.55 | 0.00 | 95 | 1039.7 |
| 20260902053023 | 68 | 242 | 0.0 | 0.0 | 0.00 | 0.55 | 0.00 | 94 | 1039.6 |
| 20260902052522 | 68 | 242 | 0.0 | 0.0 | 0.00 | 0.55 | 0.00 | 95 | 1039.6 |
| 20260902052022 | 68 | 242 | 0.0 | 0.0 | 0.00 | 0.55 | 0.00 | 94 | 1039.6 |
| 20260902051521 | 69 | 241 | 0.0 | 0.0 | 0.00 | 0.55 | 0.00 | 94 | 1039.6 |
| 20260902051021 | 69 | 241 | 0.0 | 0.0 | 0.00 | 0.55 | 0.00 | 95 | 1039.7 |
| 20260902050521 | 69 | 243 | 0.0 | 0.0 | 0.00 | 0.55 | 0.00 | 94 | 1039.7 |
| 20260902050022 | 69 | 243 | 0.0 | 0.0 | 0.00 | 0.55 | 0.00 | 95 | 1039.7 |
| 20260902045520 | 69 | 243 | 0.0 | 0.0 | 0.00 | 0.55 | 0.00 | 94 | 1039.7 |